#timestamp,LO_Frequency,Hit,StdDev 
1609837215.3,286047002.7,N
1609837235.2,286047000.8,N
1609837255.9,286046999.5,N
1609837275.7,286046999.6,N
1609837295.6,286046998.7,N
1609837315.4,286046999.4,N
1609837335.2,286046999.3,N
1609837355.1,286046998.3,N
1609837356.0,286046998.3,N
1609837375.8,286046998.4,N
1609837395.7,286046998.4,N
1609837415.5,286046999.2,N
1609837435.3,286046998.9,N
1609837455.2,286046999.1,N
1609837475.0,286046999.4,N
1609837475.9,286046999.4,N
1609837495.8,286046998.4,N
1609837515.6,286046999.2,N
1609837535.4,286046998.9,N
1609837555.3,286046998.4,N
1609837575.1,286046999.5,N
1609837595.8,286046999.1,N
1609837615.7,286046999.0,N
1609837635.5,286046999.7,N
1609837655.4,286047000.5,N
1609837675.2,286047001.2,N
1609837695.0,286047000.8,N
1609837695.9,286047000.8,N
1609837715.8,286046998.2,N
1609837735.6,286047000.6,N
1609837755.5,286047001.2,N
1609837775.3,286046999.0,N
1609837795.1,286046998.4,N
1609837815.9,286046999.5,N
1609837835.7,286046996.6,Y
1609837855.6,286046999.5,P
1609837875.4,286046996.6,P
1609837895.2,286046996.6,N
1609837915.1,286046999.1,N
1609837916.0,286046999.1,N
1609837935.8,286046999.4,N
1609837955.6,286046999.5,N
1609837975.5,286046996.6,N
1609837995.3,286046999.1,N
1609838015.2,286046997.3,N
1609838035.9,286046996.9,N
1609838055.7,286046996.5,N
1609838075.6,286046996.7,N
1609838095.4,286046996.5,N
1609838115.3,286046996.8,N
1609838135.1,286046996.8,N
1609838136.0,286046996.8,N
1609838155.8,286046997.3,N
1609838175.7,286046997.1,N
1609838195.5,286046996.6,N
1609838215.3,286046999.6,N
1609838235.2,286046999.2,N
1609838255.0,286046999.6,N
1609838255.9,286046999.6,N
1609838275.8,286046997.5,N
1609838295.6,286046997.7,N
1609838315.4,286046997.5,N
1609838335.3,286046997.3,N
1609838355.1,286046997.7,N
1609838375.9,286046997.8,N
1609838395.7,286046997.6,N
1609838415.5,286046994.9,Y
1609838435.4,286047000.9,P
1609838455.2,286047001.1,N
1609838475.0,286047001.2,N
1609838475.9,286047001.2,N
1609838495.8,286046996.9,N
1609838515.6,286046999.3,N
1609838535.5,286046999.5,N
1609838555.3,286046996.9,N
1609838575.1,286046997.5,N
1609838595.9,286046995.1,N
1609838615.7,286046997.5,N
1609838635.5,286046997.5,N
1609838655.4,286046996.7,N
1609838675.2,286046997.4,N
1609838695.1,286046997.7,N
1609838696.0,286046997.7,N
1609838715.8,286046999.0,N
1609838735.6,286046999.0,N
1609838755.5,286047000.8,N
1609838775.3,286047000.6,N
1609838795.2,286046998.2,N
1609838815.9,286046998.7,N
1609838835.7,286046998.3,N
1609838855.6,286046999.3,N
1609838875.4,286046999.3,N
1609838895.2,286046999.4,N
1609838915.1,286046999.4,N
1609838916.0,286046999.4,N
1609838935.8,286046998.3,N
1609838955.7,286046998.5,N
1609838975.5,286046999.0,N
1609838995.3,286046997.8,N
1609839015.2,286046997.7,N
1609839035.0,286046997.7,N
1609839035.9,286046997.7,N
1609839055.8,286046997.6,N
1609839075.6,286046994.9,Y
1609839095.4,286046999.3,P
1609839115.3,286046998.7,N
1609839135.1,286047001.0,N
1609839155.9,286046998.3,N
1609839175.7,286047001.2,N
1609839195.5,286046998.1,N
1609839215.4,286047000.4,N
1609839235.2,286047000.9,N
1609839255.0,286046998.3,N
1609839255.9,286046998.3,N
1609839275.8,286047000.4,N
1609839295.6,286046998.5,N
1609839315.5,286047000.9,N
1609839335.3,286047000.2,N
1609839355.1,286047000.2,N
1609839375.9,286047001.1,N
1609839395.7,286047000.4,N
1609839415.5,286047000.1,N
1609839435.4,286047002.3,N
1609839455.2,286047002.3,N
1609839475.1,286046999.8,N
1609839476.0,286046999.8,N
1609839495.8,286046998.2,N
1609839515.6,286046998.2,N
1609839535.5,286046998.5,N
1609839555.3,286046998.7,N
1609839575.2,286047000.7,N
1609839595.9,286046999.7,N
1609839615.7,286047000.6,N
1609839635.6,286047001.1,N
1609839655.4,286047000.3,N
1609839675.2,286046998.5,N
1609839695.1,286046998.4,N
1609839696.0,286046998.4,N
1609839715.8,286046998.4,N
1609839735.7,286046998.3,N
1609839755.5,286046998.2,N
1609839775.3,286047002.8,N
1609839795.2,286047001.9,N
1609839815.0,286047002.3,N
1609839815.9,286047002.3,N
1609839835.8,286047001.7,N
1609839855.6,286047002.1,N
1609839875.4,286047003.6,N
1609839895.3,286047001.3,N
1609839915.1,286047001.3,N
1609839935.8,286047004.2,N
1609839955.7,286047004.3,N
1609839975.5,286047003.9,N
1609839995.4,286047001.3,N
1609840015.2,286047004.4,N
1609840035.0,286047001.3,N
1609840035.9,286047001.3,N
1609840055.8,286047001.3,N
1609840075.6,286047001.3,N
1609840095.4,286047004.0,N
1609840115.3,286047001.9,N
1609840135.1,286047002.0,N
1609840155.9,286047001.7,N
1609840175.7,286047001.6,N
1609840195.5,286047003.5,N
1609840215.4,286047001.4,N
1609840235.2,286047004.0,N
1609840255.1,286047001.4,N
1609840256.0,286047001.4,N
1609840275.8,286047004.3,N
1609840295.6,286047001.4,N
1609840315.5,286047002.3,N
1609840335.3,286047000.6,N
1609840355.2,286047001.2,N
1609840375.9,286046998.6,N
1609840395.7,286047000.6,N
1609840415.6,286047000.4,N
1609840435.4,286047000.9,N
1609840455.2,286047001.0,N
1609840475.1,286047000.8,N
1609840476.0,286047000.8,N
1609840495.8,286047000.3,N
1609840515.7,286046998.2,N
1609840535.5,286046998.8,N
1609840555.3,286047000.8,N
1609840575.2,286046999.4,N
1609840595.0,286046999.4,N
1609840595.9,286046999.4,N
1609840615.8,286046999.2,N
1609840635.6,286046999.6,N
1609840655.4,286046999.1,N
1609840675.3,286046999.1,N
1609840695.1,286046996.9,N
1609840715.8,286046999.4,N
1609840735.7,286047000.4,N
1609840755.5,286047002.8,N
1609840775.4,286047001.5,N
1609840795.2,286047004.0,N
